Погода в Митинке

Россия / Калужская область     55°01′43″N   36°35′42″E
темп.,
°C
ветер,
м/с
пор.,
м/с
влажн.,
%
обл.,
%
осадки,
мм/ч
давл.,
гПа
погр.,
м
13 июня, вс
вс1300:00+13юз2293100 0.0 100715
03:00+12юз22952 0.0 100722
06:00+13юз13890 0.0 100795
09:00+19ююз34670 0.0 1007784
12:00+22юз34545 0.0 10061621
15:00+23юз455010 0.0 10061788
18:00+21ююз35660 0.1 1006561
21:00+16ююв22945 0.5 100835
14 июня, пн
пн1400:00+14ю24965 0.0 100965
03:00+14ю22975 0.0 101030
06:00+15ююз25955 0.0 1012153
09:00+20юз347410 0.0 1013691
12:00+23юз456044 0.0 10141435
15:00+24юз345510 0.1 10141569
18:00+23юз33645 0.0 10141086
21:00+18з22875 0.1 101519
15 июня, вт
вт1500:00+15с11925 0.0 101511
03:00+14с00925 0.0 101511
06:00+15сз12885 0.0 101573
09:00+21з12670 0.0 1015541
12:00+24з23572 0.0 10141299
15:00+25зюз235116 0.0 10121817
18:00+24сз2363100 0.0 1011897
21:00+18ссз26817 0.0 1012152
16 июня, ср
ср1600:00+14ссз22870 0.0 101214
03:00+12ссз22910 0.0 101214
06:00+14ссз26835 0.0 1012158
09:00+20с356153 0.0 1013601
12:00+23ссз455636 0.1 10131527
15:00+22ссз476344 0.7 10141326
18:00+21ссз585426 0.0 10151194
21:00+16с3116938 0.0 1017265
17 июня, чт
чт1700:00+13ссв3117027 0.0 1019255
03:00+10с39745 0.0 1022174
06:00+12с28725 0.0 1023237
09:00+18ссв45492 0.0 1023682
12:00+21ссв45365 0.0 10241571
15:00+22ссв45370 0.0 10241812
18:00+21ссв354833 0.0 10241349
21:00+14ссв22700 0.0 102529